Home > Time Zones > World Clock > Weather > Serbia > Niš > Past weeks

Flag for Serbia Weather past 2 weeks in Niš, Serbia

Now
66 °F

Passing clouds.


Feels Like: 66 °F
Forecast: 65 / 76 °F
Wind: 2 mph from North

Location: Nis Airport

Current Time: Jul 31, 2014 at 9:40:28 PM

Latest Report: Jul 31, 2014 at 9:00 PM


Visibility: N/A

Pressure: 29.80 "Hg

Humidity: 94%

Dew point: 64 °F

Location of NišLocation

Historic Weather in Niš — Graph

°F

Niš temperature yesterday

Maximum temperature yesterday: 90 °F (at 2:00 PM)
Minimum temperature yesterday: 64 °F (at 4:30 AM)
Average temperature yesterday: 77 °F

Past Weeks' High & Low Weather Summary

 TemperatureHumidityPressure
High93 °F (Jul 21, 3:30 PM)100% (Jul 17, 2:00 AM)30.04 "Hg (Jul 17, 2:00 AM)
Low59 °F (Jul 17, 3:30 AM)34% (Jul 21, 3:30 PM)29.71 "Hg (Jul 23, 3:00 PM)
Average73 °F75%29.89 "Hg
* Reported Jul 16 8:00 PM — Jul 31 8:00 PM, Niš, Weather by CustomWeather, © 2014

Note: Actual official high and low records may vary slightly from our data, if they occured in-between our weather recording intervals... More about our weather records

Advertising

Niš weather history for previous 24 hours

 ConditionsComfort  
Time TempWeatherWind HumidityBarometerVisibility
8:00 PM
Jul 31
66 °FScattered clouds.3 mph100%29.77 "HgN/A
7:30 PM66 °FPassing clouds.3 mph100%29.77 "HgN/A
7:00 PM66 °FLight rain. Scattered clouds.1 mph100%29.80 "HgN/A
6:30 PM68 °FLight rain. Broken clouds.2 mph94%29.80 "HgN/A
6:00 PM68 °FLight rain. Broken clouds.2 mph94%29.77 "HgN/A
5:30 PM68 °FPartly sunny.3 mph94%29.77 "HgN/A
5:00 PM66 °FThunderstorms. Partly sunny.1 mph94%29.77 "HgN/A
4:30 PM66 °FThunderstorms. Partly sunny.3 mph94%29.77 "HgN/A
4:00 PM66 °FPartly sunny.2 mph94%29.77 "HgN/A
3:30 PM66 °FThunderstorms. Scattered clouds.2 mph88%29.77 "HgN/A
3:00 PM66 °FThunderstorms. Partly sunny.9 mph94%29.80 "Hg4 mi
2:30 PM66 °FThunderstorms. Broken clouds.3 mph94%29.77 "HgN/A
2:00 PM64 °FThunderstorms. Broken clouds.16 mph94%29.77 "Hg2 mi
1:30 PM70 °FThunderstorms. Broken clouds.7 mph73%29.77 "HgN/A
1:00 PM73 °FThunderstorms. Partly sunny.14 mph61%29.74 "HgN/A
12:30 PM77 °FPartly sunny.13 mph61%29.74 "HgN/A
12:00 PM81 °FScattered clouds.9 mph62%29.74 "HgN/A
11:30 AM81 °FScattered clouds.2 mph62%29.74 "HgN/A
11:00 AM79 °FThunderstorms. Scattered clouds.3 mph70%29.74 "HgN/A
10:30 AM75 °FThunderstorms. Scattered clouds.3 mph74%29.74 "HgN/A
10:00 AM72 °FThunderstorms. Scattered clouds.2 mph83%29.74 "HgN/A
9:30 AM70 °FThunderstorms. Partly sunny.3 mph94%29.74 "HgN/A
9:00 AM68 °FThunderstorms. Partly sunny.No wind100%29.74 "HgN/A
8:30 AM68 °FThunderstorms. Partly sunny.2 mph100%29.74 "HgN/A
8:00 AM68 °FThunderstorms. Broken clouds.7 mph100%29.74 "HgN/A
7:30 AM70 °FStrong thunderstorms. Broken clouds.13 mph94%29.77 "Hg2 mi
7:00 AM72 °FThunderstorms. Scattered clouds.No wind78%29.74 "HgN/A
6:30 AM70 °FScattered clouds.2 mph88%29.74 "HgN/A
6:00 AM68 °FPassing clouds.2 mph100%29.74 "HgN/A
5:30 AM70 °FPassing clouds.1 mph88%29.74 "HgN/A
4:30 AM68 °FClear.2 mph94%29.74 "Hg10 mi
4:00 AM68 °FPassing clouds.5 mph94%29.74 "HgN/A
3:00 AM70 °FPassing clouds.3 mph88%29.74 "HgN/A
2:30 AM72 °FPassing clouds.5 mph83%29.74 "HgN/A
2:00 AM72 °FClear.2 mph83%29.74 "Hg10 mi
1:30 AM70 °FClear.12 mph88%29.74 "Hg10 mi
1:00 AM72 °FClear.2 mph88%29.74 "Hg10 mi
12:30 AM73 °FPassing clouds.2 mph78%29.74 "HgN/A
12:00 AM75 °FPassing clouds.1 mph78%29.77 "HgN/A
11:30 PM
Jul 30
73 °FPassing clouds.1 mph83%29.77 "HgN/A
11:00 PM75 °FPassing clouds.1 mph74%29.74 "HgN/A
10:30 PM79 °FPassing clouds.2 mph65%29.74 "HgN/A
10:00 PM79 °FPassing clouds.2 mph61%29.74 "HgN/A
9:30 PM81 °FPassing clouds.6 mph58%29.74 "HgN/A
9:00 PM81 °FThunderstorms. Passing clouds.15 mph58%29.74 "HgN/A
Weather by CustomWeather, © 2014

See weather overviewHow to use our weather pages